THORAD AGENA D DEB, 4636

Orbit data source: Space-Track

THORAD AGENA D DEB, 4636 is space debris in SSO originally from a launch on Wed, 08 Apr 1970 UTC launched from the Air Force Western Test Range (AFWTR). Debris objects in space refer to the collection of defunct objects orbiting the Earth. Examples of debris include non-operational satellites, rocket bodies, and fragments generated from explosions, collisions, or faulty payload assembly.

Loading next visibility...
Identifier
4636, 1970-025U
Orbit
SSO
Country
Flag of USUS
Related business
Manufacturer
Unknown
Mission
Spacecraft
Bus & Motor
Unknown
Mass
Unknown
Launch date (UTC)
1970-04-08 (56 years ago)
Launch vehicle
Unknown
Launch site
Air Force Western Test Range (AFWTR)
Object type
Payload
Rocket body
Debris
Shape & HBR
Unknown shape, 0.2 m
Radar Cross Section
Medium (>0.1 m² and <1 m²)

Expand to show TLE details & history
Last TLE update: 13 hours ago

TLE from 13 hours ago
0 THORAD AGENA D DEB
1 04636U 70025U   26208.48105448  .00000363  00000-0  46297-3 0  9998
2 04636 100.0694 208.5831 0033553  24.6782 127.6304 13.70513031800663
Epoch: 2026-07-27T11:32Z
TLE epoch observation values (Epoch: 2026-07-27T11:32:43.107Z)
Latitude
26.96969°
Longitude
-84.60302°
Altitude
1,016.083 km
Speed
7.339 km/s
True Right ascension
02h 14m 57s
True Declination
26° 50' 09"
Sunlit
Object was in daylight at epoch
Visualization orbit readout
Latitude
Unknown
Longitude
Unknown
Altitude
Unknown
Speed
Unknown
Apparent Right ascension
Unknown
Apparent Declination
Unknown
Sunlit
N/A
Visualization observer readout
Local Sidereal Time
14:23:54
Azimuth
Unknown
Elevation
Unknown
Doppler factor
Unknown
Orbital elements
Apogee altitude
1,019.762 km
Perigee altitude
970.284 km
Semi-major axis
7,373.16 km
Eccentricity
0.00336
Inclination
100.0694°
RAAN
208.5831°
Arg. of periapsis
24.6782°
True anomaly
127.93412°
Mean anomaly
127.6304°
Eccentric anomaly
127.78234°
Mean motion
3.42817 °/min
Orbital period
105.01 mins
BSTAR
0.00046297

Documentation

Showing up to 5 results
|